Location: Iesi
(43.5167°N, 13.2333°E)
Time: 02:48:11
(UTC+00:00)

Lacrosse 5 - Pass Details

Date: 08 August 2020
Orbit: 716 x 722 km, 57.0° (Epoch: 27 September)

Event Time Altitude Azimuth Distance (km) Brightness Sun altitude
Rises 23:21:33 0° 302° (WNW) 3,133 5.5 -30.7°
Reaches altitude 10° 23:24:22 10° 288° (WNW) 2,209 4.5 -30.6°
Enters shadow 23:24:41 11° 285° (WNW) 2,118 4.4 -30.6°
